Location: ??????
(38.0677°N, 22.9870°E)
Time: 08:06:41
(UTC+00:00)

CZ-2C R/B - Pass Details

Date: 08 August 2024
Orbit: 666 x 777 km, 98.4° (Epoch: 08 September)

Event Time Altitude Azimuth Distance (km) Brightness Sun altitude
Rises 02:07:21 0° 12° (NNE) 3,259 6.5 -16.3°
Reaches altitude 10° 02:09:40 10° 12° (NNE) 2,333 5.7 -15.9°
Maximum altitude 02:14:51 86° 285° (WNW) 785 2.5 -15.1°
Enters shadow 02:19:27 13° 196° (SSW) 2,101 4.3 -14.4°
